Regional Weather Roundup
Issued by NWS Newport/Morehead, NC

Current Version | Previous Version | Graphics & Text | Print | Product List | Glossary On
Versions: 1 2 3 4 5 6 7 8 9 10 11 12 13 14 15 16 17 18 19 20 21 22 23 24 25 26 27 28 29 30 31 32 33 34 35 36 37 38 39 40 41 42 43 44 45 46 47 48 49 50
000 ASUS42 KMHX 221425 RWRMHX WEATHER ROUNDUP FOR EASTERN NORTH CAROLINA NATIONAL WEATHER SERVICE NEWPORT/MOREHEAD CITY NC 1000 AM EDT TUE AUG 22 2017 NOTE: "FAIR" INDICATES FEW OR NO CLOUDS BELOW 12,000 FEET WITH NO SIGNIFICANT WEATHER AND/OR OBSTRUCTIONS TO VISIBILITY NCZ015>017-031-032-045>047-102-103-221500- NORTH COAST CITY SKY/WX TMP DP RH WIND PRES REMARKS EDENTON PTSUNNY 83 78 84 CALM 30.12S ELIZABETH CITY MOSUNNY 83 77 82 SW8 30.11S KITTY HAWK SUNNY 82 73 74 CALM 30.10F MANTEO SUNNY 81 75 81 SW5 30.11F $$ NCZ045>047-081-094-103-104-221500- CENTRAL COAST CITY SKY/WX TMP DP RH WIND PRES REMARKS FRISCO SUNNY 84 77 79 S6 30.12S $$ NCZ095-097-098-100-101-221500- SOUTHERN COAST CITY SKY/WX TMP DP RH WIND PRES REMARKS BEAUFORT PTSUNNY 85 77 77 VRB6 30.12S CEDAR ISLAND NOT AVBL JACKSONVILLE PTSUNNY 84 78 82 SE3 30.11S PINEY ISLAND MOSUNNY N/A N/A N/A CALM 30.12R WILMINGTON CLOUDY 81 77 88 S3 30.11S $$ NCZ011>013-027>030-043-044-078>080-089-090>093-098-221500- COASTAL PLAIN CITY SKY/WX TMP DP RH WIND PRES REMARKS AHOSKIE N/A 79 76 91 CALM 30.11S CLINTON MOSUNNY 82 78 88 CALM 30.12S ELIZABETHTOWN NOT AVBL GOLDSBORO PTSUNNY 81 81 100 SW2 30.11S GREENVILLE MOSUNNY 82 75 78 W5 30.13S HAVELOCK RAIN 83 73 72 W6 30.12F KENANSVILLE MOSUNNY 81 75 83 CALM 30.12S KINSTON PTSUNNY 79 79 100 SW5 30.13R NEW BERN MOSUNNY 83 75 77 SW3 30.13S RICHLANDS PTSUNNY 83 76 79 S3 30.12S ROCKY MOUNT PTSUNNY 80 77 90 S6 30.12S WASHINGTON MOSUNNY 83 75 75 S6 30.12S WHITEVILLE SUNNY 82 76 79 CALM 30.11S $$ AMZ130-135-150-152-154-156-158-170-250-252-270-ANZ085-086-088-633-658-670-221500- MARINE OBSERVATIONS STATION/POSITION TIME TEMP WIND PRES WAVE SWELL AIR SEA DIR/SP/G HT/PER HT/PER (UTC) (F) (DEG/KT/KT) (MB) (FT/S) (FT/S) CHESAPEAKE LIGHT NOT AVBL 64 E VA BEACH 1350 79 79 190/ 6/ 8 1020.2 2/ 8 2/ 8 DUCK 1400 81 75 230/ 5/ 9 1019.3 2 E DUCK 1330 80 N/A 2/ 9 2/13 OREGON INLET 1400 82 82 210/ 2/ 3 1019.7 13E OREGON INLT 1348 80 N/A 2/ 9 2/ 9 HATTERAS CG 1400 83 82 180/ 4/ 6 1020.0 DIAMOND BUOY 1350 82 87 190/ 6/ 6 1019.9 3/ 9 3/ 9 CAPE LOOKOUT 1300 82 130/ 3/ 4 1019.4 BEAUFORT LAB 1400 84 80 180/ 4/ 5 1019.4 30 SE NEW RVR IN 1408 83 83 180/ 6/ 10 1020.0 30 SE NEW RVR IN 1343 83 N/A 4/13 2/13 27 SE WRIGHTSVLE 1408 80 83 80/ 6/ 10 1020.2 5 SE WRIGHTSVLE 1408 79 83 130/ 8/ 12 1019.6 225 S CAPE HAT 1250 82 83 110/ 4/ 6 1020.1 5/10 5/10 41 SE CHARLESTON 1350 84 84 230/ 4/ 6 1019.5 3/10 3/10 $$

USA.gov is the U.S. government's official web portal to all federal, state and local government web resources and services.